Regional Weather Roundup
Issued by NWS

Home | Current Version | Previous Version | Text Only | Print | Product List | Glossary Off
Versions: 1 2 3 4 5 6 7 8 9 10 11 12 13 14 15 16 17 18 19 20 21 22 23 24 25 26 27 28 29 30 31 32 33 34 35 36 37 38 39 40 41 42 43 44 45 46 47 48 49 50

090
ASUS44 KJAN 220910
RWRMS

MISSISSIPPI HOURLY WEATHER ROUNDUP
NATIONAL WEATHER SERVICE JACKSON MS
400 AM CDT TUE APR 22 2014

NOTE: "FAIR: INDICATES FEW OR NO CLOUDS BELOW 12,000 FEET WITH NO
SIGNIFICANT WEATHER AND/OR OBSTRUCTIONS TO VISIBILITY.

MSZ001>002-007>008-010>013-018>021-025>028-034>036-221000-
NORTHWEST MISSISSIPPI

CITY           SKY/WX    TMP DP  RH WIND       PRES   REMARKS
CLARKSDALE       N/A     63  63 100 CALM      29.92F
CLEVELAND      DRIZZLE   63  63 100 CALM      29.91S
GREENWOOD      RAIN      63  61  93 CALM      29.92S FOG
GREENVILLE     LGT RAIN  64  63  96 NE7       29.90S FOG
GRENADA        CLOUDY    61  61 100 CALM      29.92F
OLIVE BRANCH   MOCLDY    61  61 100 SW3       29.91F
OXFORD         LGT RAIN  59  59 100 CALM      29.93F
TUNICA         RAIN      63  61  94 CALM      29.93S
$$

MSZ003>006-009-014>017-022>024-029>033-037>039-221000-
NORTHEAST MISSISSIPPI

CITY           SKY/WX    TMP DP  RH WIND       PRES   REMARKS
BELMONT        CLOUDY    62  61  96 CALM      29.91F
COLUMBUS AFB   LGT RAIN  63  60  91 NW7       29.92S
CORINTH        LGT RAIN  63  59  88 CALM      29.91F
GOLDN TRIANGLE CLOUDY    63  55  77 SW5       29.95S
STARKVILLE     CLOUDY    61  59  94 CALM      29.93S
TUPELO         LGT RAIN  64  58  80 NW3       29.92R
$$

MSZ040-058-221000-
CENTRAL MISSISSIPPI

CITY           SKY/WX    TMP DP  RH WIND       PRES   REMARKS
JACKSON INTL   PTCLDY    63  59  88 S5        29.94S
JACKSON HAWKNS PTCLDY    63  57  82 S6        29.93F
MERIDIAN KEY   CLEAR     58  57  97 S3        29.94F
MERIDIAN NAS   PTCLDY    62  58  86 SW6       29.94S
RAYMOND        FAIR      63  57  82 S5        29.93S
VICKSBURG      RAIN      67  59  75 SW8       29.92S
$$

MSZ059>079-221000-
SOUTH MISSISSIPPI

CITY           SKY/WX    TMP DP  RH WIND       PRES   REMARKS
BROOKHAVEN     FAIR      61  61 100 S5        29.97S FOG
COLUMBIA       FAIR      57  57 100 MISG      29.94F
HATTIESBURG    NOT AVBL
MCCOMB         PTCLDY    59  58  96 CALM      29.96S FOG
NATCHEZ        MOCLDY    64  59  82 SW3       29.95S
PINE BELT      CLEAR     57  54  88 S3        29.96S
$$

MSZ080>082-221000-
COASTAL MISSISSIPPI

CITY           SKY/WX    TMP DP  RH WIND       PRES   REMARKS
BILOXI         PTCLDY    59  59  99 CALM      29.96F
PASCAGOULA     NOT AVBL
GULFPORT       PTCLDY    58  54  86 CALM      29.96F
$$



USA.gov is the U.S. government's official web portal to all federal, state and local government web resources and services.